User: anonymous   Login
Location: Peebles
(55.6412°N, 3.1714°W)
Time: 03:23:05
(UTC+00:00)
Language:

Cosmos 2239 Rocket - Orbit

View from above orbital plane
View from above orbital plane
View from above satellite
View from above satellite

Ground track
Ground track

The orbit data is extracted from the following two-line orbital elements,

1 22591U 93020B   21333.80829368  .00000068  00000-0  52358-4 0  9990
2 22591  82.9290 267.7390 0026117 136.7422 252.7244 13.77469458440410
Epoch (UTC): 29 November 2021 19:23:56
Eccentricity: 0.0026117
inclination: 82.9290°
perigee height: 953 km
apogee height: 992 km
right ascension of ascending node: 267.7390°
argument of perigee: 136.7422°
revolutions per day: 13.77469458
mean anomaly at epoch: 252.7244°
orbit number at epoch: 44041

The dashed part of the orbit path shows where the satellite is in the earth's shadow,  

DLR